[[{"header":{"parameterUnit":"m.s-1","parameterCategory":2,"la1":30.2991,"la2":30.254,"lo1":-89.0895,"lo2":-89.0444,"dy":0.0017,"dx":0.0017,"nx":28,"ny":28,"refTime":"2023-08-27T09:00:00:Z","depth":"0","parameterNumber":2,"parameterNumberName":"U-component_of_CURRENTS"},"data":[0,0,0,0,0,0,0,0,0,0,0,0,0,0,0,0,0,0,0,0,0,0,0,0,0,0,0,0,0,0,0,0,0,0,0,0,0,0,0,0,0,0,0,0,0,0,0,0,0,0,0,0,0,0,0,0,0,0,-0.2711,-0.2713,0,-0.2866,-0.2867,-0.2868,-0.3013,-0.3016,-0.3019,-0.3022,-0.3126,-0.3126,-0.3126,0,0,0,0,0,0,0,0,0,0,0,0,0,-0.2406,-0.241,-0.271,-0.2713,-0.2717,-0.2866,-0.2867,-0.2868,-0.3012,-0.3016,-0.302,-0.3023,-0.3126,-0.3126,-0.3126,0,0,0,0,0,0,0,0,0,0,0,0,0,-0.2534,-0.2412,-0.271,-0.2817,-0.2829,-0.2866,-0.2867,-0.2868,-0.3011,-0.3016,-0.3021,-0.3025,-0.3127,-0.3126,-0.3126,-0.3033,0,0,-0.3126,-0.3126,0,0,0,0,0,0,0,0,-0.2527,-0.2544,-0.2798,-0.281,-0.2824,-0.2937,-0.2799,-0.2926,-0.301,-0.2927,-0.3022,-0.3027,-0.3064,-0.3069,-0.3069,-0.3038,-0.3042,-0.3126,-0.3126,-0.3126,-0.3126,0,0,0,0,0,0,0,-0.2518,-0.2537,-0.2758,-0.2802,-0.2817,-0.2814,-0.2837,-0.2822,-0.2956,-0.2935,-0.2949,-0.2988,-0.307,-0.3069,-0.3073,-0.3044,-0.3126,-0.3126,-0.3126,-0.3126,-0.2935,-0.2931,0,0,0,0,0,0,-0.253,-0.2529,-0.2753,-0.2764,-0.27,-0.2817,-0.2842,-0.2884,-0.2958,-0.2978,-0.2984,-0.2994,-0.3067,-0.3073,-0.3077,-0.2962,-0.3126,-0.3126,-0.3126,-0.294,-0.2934,-0.2929,0,0,0,0,0,0,-0.2522,-0.2548,-0.2747,-0.2661,-0.2688,-0.282,-0.2865,-0.2886,-0.291,-0.2998,-0.3015,-0.2993,-0.3071,-0.3077,-0.3053,-0.2968,-0.3126,-0.3125,-0.2946,-0.2938,-0.2931,-0.2737,0,0,0,0,0,0,-0.2513,-0.2544,-0.2538,-0.2662,-0.2694,-0.2737,-0.2863,-0.2886,-0.2933,-0.2948,-0.301,-0.3024,-0.3075,-0.3052,-0.3053,-0.2971,-0.3125,-0.2952,-0.2943,-0.2934,-0.2749,-0.2724,-0.2701,0,0,0,0,0,-0.2501,-0.2478,-0.2537,-0.2563,-0.2696,-0.2735,-0.2745,-0.2846,-0.2929,-0.2892,-0.2951,-0.3023,-0.2994,-0.3048,-0.305,-0.2966,-0.2957,-0.2945,-0.2935,-0.276,-0.2729,-0.2702,0,0,0,0,0,0,-0.2352,-0.2496,-0.2563,-0.2589,-0.2648,-0.2764,-0.2745,-0.2832,-0.2849,-0.2865,-0.2965,-0.2977,-0.2912,-0.2957,-0.3016,-0.2878,-0.2982,-0.2971,-0.2849,-0.282,-0.2796,-0.2851,-0.3125,0,0,0,0,0,-0.2316,-0.2334,-0.2467,-0.2481,-0.2504,-0.2622,-0.2647,-0.2717,-0.2777,-0.2793,-0.284,-0.2869,-0.2854,-0.2861,-0.2843,-0.2777,-0.2829,-0.2719,-0.2695,-0.2674,-0.2715,-0.2707,-0.2688,-0.2892,-0.2892,-0.2892,0,0,-0.2274,-0.2348,-0.2365,-0.2447,-0.2502,-0.2517,-0.2642,-0.2663,-0.2674,-0.2792,-0.277,-0.2774,-0.2812,-0.2732,-0.2707,-0.2773,-0.2622,-0.266,-0.2643,-0.2696,-0.2693,-0.2674,-0.2658,-0.2884,-0.2886,-0.2887,0,0,-0.2196,-0.2248,-0.2244,-0.2274,-0.235,-0.2407,-0.2415,-0.2505,-0.253,-0.2508,-0.2584,-0.2554,-0.2542,-0.2552,-0.2561,-0.2392,-0.2482,-0.2364,-0.2308,-0.2295,-0.228,-0.2268,-0.2234,-0.2221,-0.237,-0.2369,-0.2369,0,-0.2141,-0.2179,-0.2235,-0.2235,-0.2269,-0.2361,-0.2366,-0.2372,-0.2438,-0.2453,-0.2472,-0.2454,-0.2461,-0.2423,-0.2357,-0.2341,-0.2356,-0.2418,-0.2269,-0.2259,-0.225,-0.2219,-0.2207,-0.2359,-0.236,-0.2361,-0.2362,0,-0.2083,-0.2101,-0.2084,-0.2132,-0.214,-0.2142,-0.2199,-0.2183,-0.2224,-0.2268,-0.2219,-0.2213,-0.224,-0.2182,-0.2225,-0.2147,-0.2178,-0.2226,-0.2356,-0.2218,-0.2192,-0.2183,-0.2343,-0.2347,-0.235,-0.2353,0,0,-0.2019,-0.2049,-0.2047,-0.2066,-0.2097,-0.2112,-0.2077,-0.2105,-0.2128,-0.2093,-0.2115,-0.2026,-0.2062,-0.2075,-0.2089,-0.2066,-0.1956,-0.2119,-0.2123,-0.2109,-0.1915,-0.1832,-0.1816,-0.1987,-0.1986,-0.1985,-0.1897,0,-0.1977,-0.1966,-0.1991,-0.1975,-0.1983,-0.2027,-0.2006,-0.2021,-0.2033,-0.2038,-0.2022,-0.2015,-0.201,-0.2015,-0.1979,-0.1991,-0.1937,-0.1976,-0.2034,-0.2036,-0.2,-0.1805,-0.172,-0.1628,-0.1889,-0.1888,-0.1887,0,-0.193,-0.1938,-0.1924,-0.1951,-0.1959,-0.1948,-0.197,-0.1964,-0.1973,-0.1985,-0.1977,-0.1995,-0.1953,-0.1965,-0.1908,-0.194,-0.191,-0.1898,-0.1896,-0.1907,-0.1939,-0.1819,-0.1604,-0.1589,-0.1875,-0.1876,-0.1877,0,-0.1885,-0.1894,-0.1888,-0.1893,-0.192,-0.192,-0.1933,-0.1949,-0.1953,-0.1966,-0.1973,-0.1953,-0.1942,-0.1912,-0.1872,-0.19,-0.181,-0.1853,-0.1736,-0.173,-0.1719,-0.1713,-0.1531,-0.1788,-0.1788,-0.1789,-0.1789,0,-0.1844,-0.1839,-0.1869,-0.1867,-0.1862,-0.1893,-0.1891,-0.1908,-0.1931,-0.1928,-0.195,-0.1933,-0.1932,-0.1888,-0.1858,-0.1751,-0.1791,-0.1696,-0.1692,-0.1634,-0.1623,-0.1667,-0.1712,-0.1785,-0.1786,-0.1787,-0.1787,0,-0.1788,-0.1812,-0.1807,-0.1834,-0.1839,-0.1834,-0.1863,-0.1868,-0.1897,-0.1895,-0.1899,-0.1908,-0.1846,-0.1813,-0.1759,-0.1713,-0.1602,-0.1593,-0.1507,-0.1492,-0.1372,-0.1409,-0.1308,-0.1271,-0.1449,-0.1446,-0.1444,0,-0.1755,-0.1745,-0.1767,-0.1767,-0.1777,-0.1783,-0.179,-0.1836,-0.1846,-0.1865,-0.1856,-0.1814,-0.1754,-0.163,-0.1545,-0.1439,-0.1471,-0.1314,-0.1338,-0.1312,-0.1353,-0.1402,-0.1383,-0.122,-0.1216,-0.1213,-0.121,0,-0.1686,-0.1695,-0.17,-0.1694,-0.1701,-0.1708,-0.1724,-0.1729,-0.1778,-0.1772,-0.174,-0.1697,-0.1574,-0.1425,-0.1299,-0.1238,-0.128,-0.1242,-0.1245,-0.1165,-0.1182,-0.1162,-0.1329,-0.1181,-0.1184,-0.1186,-0.1188,-0.1189,-0.1627,-0.1611,-0.1614,-0.1603,-0.1617,-0.1613,-0.1583,-0.1613,-0.16,-0.1558,-0.1587,-0.1458,-0.1353,-0.1151,-0.1085,-0.095,-0.1041,-0.0928,-0.0974,-0.1025,-0.0983,-0.1061,-0.0898,-0.0899,-0.09,-0.0901,-0.0901,0,-0.1533,-0.1525,-0.1518,-0.1501,-0.1476,-0.1513,-0.1518,-0.1471,-0.1416,-0.1358,-0.1293,-0.1115,-0.0995,-0.0909,-0.0779,-0.0715,-0.0726,-0.0707,-0.0773,-0.0766,-0.0841,-0.0824,-0.06,-0.06,-0.06,-0.06,-0.06,-0.06,-0.1483,-0.1438,-0.1433,-0.1354,-0.1343,-0.1274,-0.1253,-0.1207,-0.1134,-0.0941,-0.0793,-0.0688,-0.0672,-0.0738,-0.0669,-0.0625,-0.0641,-0.0605,-0.0655,-0.0734,-0.076,-0.0784,-0.0774,-0.0543,-0.0543,-0.0539,-0.0539,-0.0539]},{"header":{"parameterUnit":"m.s-1","parameterCategory":2,"la1":30.2991,"la2":30.254,"lo1":-89.0895,"lo2":-89.0444,"dy":0.0017,"dx":0.0017,"nx":28,"ny":28,"refTime":"2023-08-27T09:00:00:Z","depth":"0","parameterNumber":3,"parameterNumberName":"V-component_of_CURRENTS"},"data":[0,0,0,0,0,0,0,0,0,0,0,0,0,0,0,0,0,0,0,0,0,0,0,0,0,0,0,0,0,0,0,0,0,0,0,0,0,0,0,0,0,0,0,0,0,0,0,0,0,0,0,0,0,0,0,0,0,0,-0.0686,-0.0686,0,-0.0592,-0.059,-0.0589,-0.0488,-0.0487,-0.0486,-0.0485,-0.0241,-0.0236,-0.023,0,0,0,0,0,0,0,0,0,0,0,0,0,-0.0687,-0.0688,-0.0687,-0.0686,-0.0685,-0.0592,-0.059,-0.0589,-0.0489,-0.0487,-0.0486,-0.0485,-0.0243,-0.0236,-0.023,0,0,0,0,0,0,0,0,0,0,0,0,0,-0.0645,-0.0688,-0.0687,-0.0627,-0.0621,-0.0592,-0.059,-0.0588,-0.0489,-0.0487,-0.0486,-0.0484,-0.0245,-0.0237,-0.0229,-0.0208,0,0,-0.0203,-0.02,0,0,0,0,0,0,0,0,-0.0648,-0.0645,-0.0636,-0.0631,-0.0624,-0.0554,-0.0501,-0.0455,-0.0489,-0.0535,-0.0485,-0.0484,-0.0336,-0.032,-0.0302,-0.0197,-0.0186,-0.0203,-0.0198,-0.0194,-0.0192,0,0,0,0,0,0,0,-0.0651,-0.0648,-0.0645,-0.0636,-0.0628,-0.0573,-0.0566,-0.0492,-0.0439,-0.0531,-0.0524,-0.0521,-0.033,-0.031,-0.0295,-0.0183,-0.0203,-0.0195,-0.019,-0.0187,0.0028,0.0029,0,0,0,0,0,0,-0.0678,-0.0652,-0.0648,-0.0642,-0.0637,-0.0575,-0.0567,-0.0575,-0.0443,-0.0424,-0.0522,-0.0517,-0.0325,-0.0305,-0.0286,-0.0223,-0.0194,-0.0186,-0.0181,0.0028,0.0028,0.0029,0,0,0,0,0,0,-0.0679,-0.0679,-0.0652,-0.0647,-0.064,-0.0578,-0.0587,-0.0574,-0.055,-0.0439,-0.0415,-0.0512,-0.0323,-0.0297,-0.0224,-0.0213,-0.0182,-0.0175,0.0027,0.0028,0.0029,-0.0116,0,0,0,0,0,0,-0.0679,-0.068,-0.0689,-0.065,-0.0642,-0.0633,-0.0588,-0.0573,-0.0553,-0.0544,-0.0422,-0.0399,-0.032,-0.0237,-0.0216,-0.0201,-0.0168,0.0026,0.0027,0.0029,-0.0112,-0.012,-0.0126,0,0,0,0,0,-0.068,-0.069,-0.0691,-0.069,-0.0659,-0.0634,-0.0624,-0.057,-0.0554,-0.0543,-0.047,-0.0402,-0.0211,-0.0231,-0.0206,-0.0188,0.0025,0.0027,0.0028,-0.0109,-0.0118,-0.0126,0,0,0,0,0,0,-0.0689,-0.0681,-0.068,-0.0687,-0.0668,-0.0618,-0.0602,-0.0582,-0.052,-0.0507,-0.0407,-0.0378,-0.0311,-0.0228,-0.0252,-0.0118,-0.0076,-0.0069,-0.0188,-0.0196,-0.0203,-0.0211,-0.0161,0,0,0,0,0,-0.0704,-0.0713,-0.0695,-0.0703,-0.0695,-0.0658,-0.0641,-0.0614,-0.056,-0.0532,-0.0456,-0.0362,-0.0285,-0.0228,-0.0149,-0.0081,-0.0025,-0.0045,-0.0053,-0.006,-0.0046,0.001,0.0008,0.0035,0.0035,0.0035,0,0,-0.0712,-0.0709,-0.0714,-0.0706,-0.0684,-0.0672,-0.0641,-0.0623,-0.0604,-0.0514,-0.0457,-0.0396,-0.0278,-0.0208,-0.0166,-0.0134,-0.004,-0.0058,-0.0065,-0.0047,0.0011,0.0008,0.0006,0.0036,0.0036,0.0035,0,0,-0.0727,-0.073,-0.074,-0.0728,-0.0711,-0.0685,-0.0688,-0.0649,-0.0618,-0.0574,-0.0506,-0.0447,-0.032,-0.0244,-0.0186,-0.0181,-0.0096,-0.0143,-0.0168,-0.0116,-0.0118,-0.012,-0.0075,-0.0071,-0.0129,-0.0129,-0.0129,0,-0.0736,-0.0752,-0.0736,-0.0738,-0.0731,-0.0697,-0.0699,-0.0663,-0.0606,-0.0582,-0.0563,-0.0415,-0.0334,-0.0244,-0.0241,-0.0199,-0.0156,-0.0157,-0.013,-0.013,-0.0129,-0.0082,-0.0076,-0.0136,-0.0135,-0.0135,-0.0134,0,-0.0757,-0.0767,-0.0768,-0.0765,-0.075,-0.0748,-0.071,-0.0688,-0.0658,-0.062,-0.0553,-0.0465,-0.0368,-0.0339,-0.0285,-0.0228,-0.0199,-0.0171,-0.0124,-0.0142,-0.0089,-0.0081,-0.0146,-0.0143,-0.0141,-0.014,0,0,-0.0783,-0.0787,-0.0786,-0.0794,-0.0769,-0.0761,-0.0732,-0.0696,-0.0676,-0.062,-0.0583,-0.0481,-0.0446,-0.0377,-0.0313,-0.0262,-0.024,-0.0215,-0.0209,-0.0197,-0.0129,-0.0102,-0.0089,-0.0216,-0.0215,-0.0214,-0.0105,0,-0.0806,-0.0831,-0.0816,-0.0823,-0.0831,-0.0794,-0.0771,-0.0731,-0.0685,-0.0638,-0.0556,-0.0493,-0.0453,-0.0418,-0.0366,-0.0264,-0.0219,-0.0272,-0.0086,-0.008,-0.0077,-0.0079,-0.0051,0.005,-0.0096,-0.0094,-0.0093,0,-0.0828,-0.0845,-0.0871,-0.0866,-0.0864,-0.0856,-0.0821,-0.0796,-0.0718,-0.0681,-0.0613,-0.0544,-0.0453,-0.0429,-0.0274,-0.0311,-0.0229,-0.0161,-0.0154,-0.0065,-0.0036,0.0055,0.0072,0.0174,-0.0079,-0.008,-0.0081,0,-0.0865,-0.0876,-0.0903,-0.0904,-0.0892,-0.0889,-0.0872,-0.0813,-0.0786,-0.0708,-0.0676,-0.0566,-0.0497,-0.0392,-0.0247,-0.0258,-0.0083,-0.0076,0.0023,0.0026,0.0123,0.0132,0.0244,0.0023,0.0023,0.0022,0.0022,0,-0.0898,-0.0914,-0.0927,-0.0943,-0.0961,-0.0934,-0.0926,-0.0893,-0.0835,-0.0789,-0.0704,-0.0636,-0.0485,-0.0363,-0.0252,-0.008,-0.0082,0.0027,0.0061,0.0073,0.0076,0.0231,0.0268,0.0026,0.0026,0.0025,0.0024,0,-0.093,-0.0943,-0.0973,-0.0981,-0.0982,-0.0996,-0.0972,-0.0959,-0.0903,-0.084,-0.0815,-0.0674,-0.0509,-0.0359,-0.0163,-0.0073,0.0149,0.0133,0.0132,0.0164,0.0334,0.0362,0.0531,0.0609,0.0258,0.0259,0.026,0,-0.095,-0.0975,-0.1007,-0.1029,-0.1035,-0.1046,-0.1046,-0.1001,-0.0974,-0.0849,-0.0814,-0.065,-0.0505,-0.0225,-0.0039,0.016,0.0235,0.0289,0.0274,0.0358,0.0415,0.0424,0.0477,0.0342,0.0344,0.0345,0.0347,0,-0.0982,-0.0997,-0.1027,-0.1074,-0.1093,-0.1105,-0.1094,-0.1075,-0.0996,-0.0922,-0.0777,-0.0652,-0.0378,-0.0121,0.0117,0.0228,0.0366,0.0324,0.0427,0.0506,0.0513,0.0599,0.0246,0.0359,0.0358,0.0357,0.0356,0.0356,-0.0998,-0.1031,-0.1071,-0.1111,-0.1138,-0.114,-0.112,-0.1063,-0.0992,-0.0801,-0.0725,-0.0446,-0.0181,0.017,0.0292,0.0532,0.0497,0.06,0.0632,0.0636,0.0701,0.0365,0.0502,0.0502,0.0501,0.0501,0.0501,0,-0.1009,-0.1049,-0.1096,-0.1139,-0.1163,-0.1167,-0.113,-0.1052,-0.0921,-0.0692,-0.0507,-0.0088,0.0182,0.0435,0.0715,0.0837,0.0863,0.089,0.0919,0.0965,0.0693,0.0685,0.0851,0.0851,0.0851,0.085,0.085,0.085,-0.1016,-0.1065,-0.1094,-0.1141,-0.1165,-0.1148,-0.111,-0.0945,-0.0753,-0.0347,-0.0003,0.0236,0.0527,0.0839,0.1091,0.1112,0.1232,0.1199,0.1276,0.1086,0.1061,0.1037,0.104,0.1277,0.1278,0.1545,0.1548,0.155]}],[{"header":{"parameterUnit":"m.s-1","parameterCategory":2,"la1":30.2991,"la2":30.254,"lo1":-89.0895,"lo2":-89.0444,"dy":0.0017,"dx":0.0017,"nx":28,"ny":28,"refTime":"2023-08-27T09:00:00:Z","depth":"2","parameterNumber":2,"parameterNumberName":"U-component_of_CURRENTS"},"data":[0,0,0,0,0,0,0,0,0,0,0,0,0,0,0,0,0,0,0,0,0,0,0,0,0,0,0,0,0,0,0,0,0,0,0,0,0,0,0,0,0,0,0,0,0,0,0,0,0,0,0,0,0,0,0,0,0,0,-0.2121,-0.2121,0,-0.2123,-0.2123,-0.2124,-0.2171,-0.2172,-0.2173,-0.2174,-0.2287,-0.2289,-0.2291,0,0,0,0,0,0,0,0,0,0,0,0,0,-0.2106,-0.2106,-0.2121,-0.2121,-0.2121,-0.2123,-0.2123,-0.2124,-0.2171,-0.2172,-0.2173,-0.2174,-0.2286,-0.2288,-0.2291,0,0,0,0,0,0,0,0,0,0,0,0,0,-0.2113,-0.2106,-0.2122,-0.2143,-0.2144,-0.2123,-0.2123,-0.2124,-0.217,-0.2172,-0.2173,-0.2175,-0.2285,-0.2288,-0.2291,-0.2282,0,0,-0.2301,-0.2302,0,0,0,0,0,0,0,0,-0.2113,-0.2114,-0.214,-0.2141,-0.2143,-0.2146,-0.2159,-0.2181,-0.217,-0.2163,-0.2174,-0.2175,-0.2247,-0.2253,-0.2253,-0.2288,-0.2292,-0.2301,-0.2303,-0.2305,-0.2306,0,0,0,0,0,0,0,-0.2112,-0.2114,-0.2125,-0.2139,-0.2141,-0.2133,-0.2137,-0.2163,-0.2201,-0.2164,-0.2167,-0.2162,-0.2249,-0.225,-0.2256,-0.2294,-0.2301,-0.2304,-0.2306,-0.2307,-0.2252,-0.2248,0,0,0,0,0,0,-0.2108,-0.2114,-0.2125,-0.2125,-0.2128,-0.2133,-0.2137,-0.2146,-0.2199,-0.2206,-0.2161,-0.2164,-0.2243,-0.2252,-0.2261,-0.2249,-0.2305,-0.2308,-0.2309,-0.2255,-0.2251,-0.2247,0,0,0,0,0,0,-0.2108,-0.2109,-0.2125,-0.2116,-0.2117,-0.2131,-0.2141,-0.2145,-0.2156,-0.2194,-0.2205,-0.2169,-0.2245,-0.2256,-0.2258,-0.2254,-0.2309,-0.2312,-0.2259,-0.2254,-0.2249,-0.2228,0,0,0,0,0,0,-0.2107,-0.2109,-0.2114,-0.2116,-0.2118,-0.2126,-0.214,-0.2144,-0.2149,-0.2154,-0.2205,-0.2216,-0.2247,-0.2253,-0.2261,-0.2259,-0.2314,-0.2263,-0.2257,-0.2251,-0.2233,-0.2223,-0.2214,0,0,0,0,0,-0.2107,-0.2099,-0.2114,-0.2115,-0.2124,-0.2126,-0.2127,-0.2142,-0.2148,-0.2157,-0.2159,-0.2215,-0.2218,-0.2253,-0.2264,-0.2263,-0.2266,-0.2259,-0.2251,-0.2237,-0.2225,-0.2215,0,0,0,0,0,0,-0.2085,-0.2103,-0.212,-0.2118,-0.213,-0.2134,-0.2129,-0.214,-0.2148,-0.215,-0.2187,-0.2197,-0.2197,-0.221,-0.2247,-0.2214,-0.2246,-0.224,-0.2231,-0.222,-0.2211,-0.2221,-0.2317,0,0,0,0,0,-0.2084,-0.2087,-0.2108,-0.2102,-0.2109,-0.212,-0.2121,-0.2136,-0.2139,-0.2145,-0.2173,-0.2176,-0.2168,-0.218,-0.2186,-0.218,-0.2184,-0.2172,-0.2163,-0.2156,-0.2162,-0.2151,-0.2144,-0.2222,-0.2222,-0.2222,0,0,-0.2066,-0.2077,-0.2077,-0.2097,-0.2104,-0.2103,-0.2126,-0.2127,-0.212,-0.2155,-0.2153,-0.216,-0.2155,-0.2142,-0.2142,-0.2161,-0.2124,-0.2146,-0.2141,-0.2151,-0.2143,-0.2136,-0.213,-0.2217,-0.2218,-0.2219,0,0,-0.2027,-0.2052,-0.2045,-0.2058,-0.2073,-0.2084,-0.2087,-0.2103,-0.2112,-0.2102,-0.2109,-0.2102,-0.2108,-0.2102,-0.2094,-0.2029,-0.2077,-0.2026,-0.2001,-0.1991,-0.1986,-0.1982,-0.1948,-0.1941,-0.2022,-0.2022,-0.2022,0,-0.2006,-0.2011,-0.204,-0.2037,-0.2042,-0.2075,-0.207,-0.2072,-0.2084,-0.2086,-0.2097,-0.2072,-0.2083,-0.205,-0.2019,-0.2018,-0.2011,-0.206,-0.1985,-0.1981,-0.1978,-0.1944,-0.1937,-0.202,-0.202,-0.202,-0.202,0,-0.1967,-0.1976,-0.1968,-0.1984,-0.1993,-0.1994,-0.2011,-0.2021,-0.2032,-0.2037,-0.2024,-0.2019,-0.201,-0.1997,-0.1993,-0.1961,-0.1962,-0.1983,-0.2033,-0.197,-0.1936,-0.193,-0.2017,-0.2018,-0.2018,-0.2019,0,0,-0.1913,-0.194,-0.1938,-0.1949,-0.1973,-0.1977,-0.1967,-0.1979,-0.198,-0.1982,-0.1976,-0.194,-0.1958,-0.1946,-0.1945,-0.1929,-0.1884,-0.1943,-0.1944,-0.1942,-0.1845,-0.1764,-0.1749,-0.1907,-0.1906,-0.1906,-0.1823,0,-0.188,-0.1873,-0.1895,-0.1888,-0.1894,-0.1928,-0.1921,-0.1932,-0.1946,-0.1951,-0.1941,-0.1935,-0.193,-0.1932,-0.1911,-0.1906,-0.187,-0.1904,-0.1877,-0.1875,-0.184,-0.174,-0.163,-0.154,-0.1816,-0.1815,-0.1814,0,-0.184,-0.1849,-0.1841,-0.1869,-0.1875,-0.1872,-0.1895,-0.1894,-0.1906,-0.1918,-0.1914,-0.1924,-0.1893,-0.1904,-0.1853,-0.1879,-0.185,-0.1837,-0.1835,-0.1769,-0.1783,-0.1648,-0.1518,-0.1804,-0.1805,-0.1805,-0.1806,0,-0.18,-0.1812,-0.1811,-0.1817,-0.1846,-0.1849,-0.1864,-0.1882,-0.1888,-0.1902,-0.1909,-0.1894,-0.1884,-0.1858,-0.1819,-0.1843,-0.1762,-0.1796,-0.1684,-0.1678,-0.1583,-0.1569,-0.1743,-0.1743,-0.1743,-0.1743,-0.1743,0,-0.1764,-0.1763,-0.1794,-0.1793,-0.1794,-0.1825,-0.1827,-0.1846,-0.1868,-0.1865,-0.189,-0.1875,-0.1875,-0.1835,-0.1806,-0.1706,-0.1745,-0.1654,-0.1644,-0.1563,-0.155,-0.1791,-0.1798,-0.174,-0.1741,-0.1741,-0.1742,0,-0.1714,-0.1738,-0.1737,-0.1767,-0.1774,-0.1772,-0.1801,-0.1807,-0.1837,-0.1834,-0.1838,-0.185,-0.1791,-0.1762,-0.1712,-0.167,-0.1604,-0.1557,-0.1445,-0.1423,-0.1531,-0.1537,-0.1426,-0.1422,-0.1419,-0.1416,-0.1414,0,-0.1685,-0.1679,-0.1702,-0.1704,-0.1715,-0.1724,-0.1732,-0.1777,-0.1785,-0.1803,-0.1793,-0.1755,-0.1697,-0.1582,-0.1502,-0.1402,-0.1485,-0.126,-0.1279,-0.1493,-0.1496,-0.1507,-0.1517,-0.1132,-0.1128,-0.1124,-0.1122,0,-0.1624,-0.1634,-0.1639,-0.1636,-0.1644,-0.1652,-0.1668,-0.1671,-0.1715,-0.1709,-0.1675,-0.1632,-0.1518,-0.136,-0.1244,-0.1187,-0.1272,-0.1183,-0.1425,-0.1233,-0.121,-0.1215,-0.1236,-0.109,-0.1093,-0.1095,-0.1097,-0.1098,-0.1572,-0.1557,-0.156,-0.155,-0.1565,-0.1559,-0.152,-0.1547,-0.153,-0.1477,-0.1519,-0.1394,-0.1345,-0.1089,-0.0998,-0.0925,-0.1024,-0.0995,-0.1009,-0.1025,-0.1009,-0.0983,-0.0816,-0.0817,-0.0818,-0.082,-0.0821,0,-0.1487,-0.1479,-0.1471,-0.1452,-0.1424,-0.1462,-0.1454,-0.1386,-0.1316,-0.1294,-0.1228,-0.1049,-0.0924,-0.0871,-0.0701,-0.0661,-0.0684,-0.0639,-0.0683,-0.0714,-0.0741,-0.0715,-0.044,-0.0439,-0.0438,-0.0437,0,0,-0.1443,-0.14,-0.1391,-0.1307,-0.1292,-0.12,-0.1166,-0.1077,-0.1023,-0.0917,-0.0842,-0.0865,-0.0851,-0.0655,-0.0597,-0.0491,-0.0602,-0.0459,-0.0763,-0.0846,-0.0873,-0.0941,-0.0933,0,0,0,0,0]},{"header":{"parameterUnit":"m.s-1","parameterCategory":2,"la1":30.2991,"la2":30.254,"lo1":-89.0895,"lo2":-89.0444,"dy":0.0017,"dx":0.0017,"nx":28,"ny":28,"refTime":"2023-08-27T09:00:00:Z","depth":"2","parameterNumber":3,"parameterNumberName":"V-component_of_CURRENTS"},"data":[0,0,0,0,0,0,0,0,0,0,0,0,0,0,0,0,0,0,0,0,0,0,0,0,0,0,0,0,0,0,0,0,0,0,0,0,0,0,0,0,0,0,0,0,0,0,0,0,0,0,0,0,0,0,0,0,0,0,-0.0471,-0.047,0,-0.0399,-0.0398,-0.0398,-0.0357,-0.0357,-0.0356,-0.0356,-0.0206,-0.0202,-0.0199,0,0,0,0,0,0,0,0,0,0,0,0,0,-0.052,-0.052,-0.0471,-0.047,-0.0469,-0.0399,-0.0398,-0.0398,-0.0357,-0.0357,-0.0356,-0.0356,-0.0207,-0.0203,-0.0198,0,0,0,0,0,0,0,0,0,0,0,0,0,-0.048,-0.052,-0.0471,-0.0439,-0.0435,-0.0399,-0.0398,-0.0397,-0.0357,-0.0357,-0.0356,-0.0356,-0.0209,-0.0203,-0.0198,-0.0172,0,0,-0.0181,-0.0178,0,0,0,0,0,0,0,0,-0.0483,-0.0479,-0.0445,-0.0441,-0.0437,-0.0385,-0.036,-0.0318,-0.0357,-0.0389,-0.0356,-0.0356,-0.0258,-0.0248,-0.0239,-0.0165,-0.0159,-0.018,-0.0177,-0.0174,-0.0173,0,0,0,0,0,0,0,-0.0486,-0.0481,-0.0444,-0.0444,-0.0439,-0.041,-0.0404,-0.0352,-0.0326,-0.0386,-0.0382,-0.0372,-0.0255,-0.0245,-0.0235,-0.0157,-0.018,-0.0175,-0.0172,-0.017,-0.0054,-0.0055,0,0,0,0,0,0,-0.0494,-0.0484,-0.0446,-0.0442,-0.0457,-0.0409,-0.0403,-0.0404,-0.0329,-0.0317,-0.0372,-0.037,-0.0255,-0.0242,-0.023,-0.0187,-0.0174,-0.0169,-0.0166,-0.0054,-0.0054,-0.0055,0,0,0,0,0,0,-0.0496,-0.0492,-0.0449,-0.0459,-0.0452,-0.0409,-0.041,-0.0402,-0.0391,-0.0319,-0.0306,-0.0368,-0.0254,-0.0237,-0.0202,-0.0181,-0.0167,-0.0162,-0.0054,-0.0054,-0.0055,-0.0106,0,0,0,0,0,0,-0.0498,-0.0493,-0.0503,-0.046,-0.0451,-0.0438,-0.041,-0.0401,-0.0384,-0.0381,-0.0311,-0.0297,-0.0252,-0.0211,-0.0197,-0.0173,-0.0157,-0.0053,-0.0054,-0.0054,-0.0103,-0.0108,-0.0111,0,0,0,0,0,-0.05,-0.0512,-0.0504,-0.0499,-0.0464,-0.0438,-0.0432,-0.04,-0.0385,-0.0387,-0.0348,-0.0299,-0.0203,-0.0208,-0.019,-0.0164,-0.0053,-0.0054,-0.0054,-0.0102,-0.0107,-0.0111,0,0,0,0,0,0,-0.0536,-0.0508,-0.0498,-0.0501,-0.0477,-0.0431,-0.0428,-0.0405,-0.0377,-0.0373,-0.0307,-0.0291,-0.0248,-0.0209,-0.0215,-0.0135,-0.0117,-0.0114,-0.0159,-0.0163,-0.0167,-0.0178,-0.0153,0,0,0,0,0,-0.055,-0.0555,-0.0518,-0.0522,-0.0512,-0.0473,-0.0459,-0.0439,-0.0403,-0.0391,-0.0342,-0.029,-0.0237,-0.0206,-0.016,-0.0119,-0.0083,-0.0091,-0.0095,-0.0098,-0.0098,-0.0045,-0.0043,-0.0057,-0.0057,-0.0057,0,0,-0.0562,-0.0549,-0.055,-0.0531,-0.0509,-0.0496,-0.0464,-0.0449,-0.0433,-0.0377,-0.0347,-0.0302,-0.0232,-0.019,-0.0165,-0.0153,-0.0077,-0.0099,-0.0102,-0.01,-0.0045,-0.0044,-0.0042,-0.0057,-0.0057,-0.0057,0,0,-0.0584,-0.0581,-0.0588,-0.0574,-0.0548,-0.0522,-0.052,-0.048,-0.0459,-0.0431,-0.038,-0.0335,-0.0263,-0.0207,-0.0168,-0.0165,-0.0103,-0.0144,-0.0163,-0.0112,-0.011,-0.0108,-0.0068,-0.0062,-0.0142,-0.0142,-0.0142,0,-0.0599,-0.0604,-0.0585,-0.0585,-0.0573,-0.0535,-0.0531,-0.0504,-0.0459,-0.0437,-0.0431,-0.0323,-0.0267,-0.0193,-0.0195,-0.0169,-0.014,-0.015,-0.0116,-0.0114,-0.0111,-0.007,-0.0062,-0.0144,-0.0144,-0.0144,-0.0144,0,-0.0621,-0.0625,-0.0627,-0.0615,-0.0602,-0.0596,-0.0555,-0.0539,-0.0511,-0.0474,-0.0416,-0.0354,-0.0286,-0.0257,-0.0222,-0.0163,-0.0149,-0.0131,-0.0105,-0.0112,-0.0069,-0.006,-0.0148,-0.0147,-0.0146,-0.0146,0,0,-0.0644,-0.0643,-0.0643,-0.0645,-0.0619,-0.0608,-0.0585,-0.0545,-0.0524,-0.048,-0.0442,-0.0358,-0.0325,-0.028,-0.0224,-0.0179,-0.0133,-0.0152,-0.0149,-0.0114,-0.0028,-0.0009,0.0003,-0.0111,-0.0109,-0.0108,-0.0009,0,-0.0662,-0.0681,-0.0666,-0.0669,-0.0672,-0.0636,-0.0617,-0.0578,-0.0538,-0.0495,-0.042,-0.0366,-0.033,-0.03,-0.0248,-0.0157,-0.0112,-0.0162,-0.0025,-0.0021,-0.0004,0.0013,0.0003,0.0092,-0.0,0.0001,0.0002,0,-0.068,-0.0692,-0.0709,-0.0701,-0.0696,-0.0691,-0.0655,-0.0632,-0.056,-0.0529,-0.0466,-0.0407,-0.032,-0.0302,-0.0157,-0.0193,-0.0118,-0.0057,-0.0051,-0.0007,0.0015,0.0086,0.0111,0.0017,0.0016,0.0015,0.0014,0,-0.0709,-0.0714,-0.0734,-0.0733,-0.0719,-0.0714,-0.0699,-0.0644,-0.0621,-0.055,-0.0525,-0.042,-0.0362,-0.0262,-0.0135,-0.0144,0.0015,0.0024,0.0112,0.0114,0.0146,0.0149,0.0119,0.0119,0.0118,0.0118,0.0118,0,-0.0733,-0.0744,-0.0754,-0.0765,-0.0778,-0.0753,-0.0745,-0.0714,-0.0662,-0.0624,-0.0547,-0.049,-0.0351,-0.0241,-0.0138,0.0016,0.0018,0.0115,0.0146,0.0127,0.0126,0.0094,0.009,0.0122,0.0121,0.012,0.012,0,-0.0758,-0.0767,-0.079,-0.0794,-0.0796,-0.0807,-0.0788,-0.0777,-0.0727,-0.0675,-0.0655,-0.0529,-0.0383,-0.0245,-0.0065,0.002,0.0157,0.0209,0.0171,0.0195,0.022,0.0212,0.0319,0.0321,0.0322,0.0323,0.0324,0,-0.0773,-0.0792,-0.082,-0.084,-0.0845,-0.0855,-0.0858,-0.0818,-0.0797,-0.0689,-0.0662,-0.0516,-0.0389,-0.0133,0.0037,0.0222,0.0212,0.0309,0.0294,0.0224,0.0243,0.0233,0.0223,0.0317,0.0318,0.0319,0.0319,0,-0.0798,-0.0812,-0.0836,-0.0882,-0.0902,-0.0915,-0.091,-0.0896,-0.0828,-0.0766,-0.0642,-0.0531,-0.0284,-0.0066,0.0154,0.0253,0.0275,0.0329,0.0289,0.0259,0.0229,0.0245,0.0235,0.0325,0.0325,0.0324,0.0324,0.0324,-0.0813,-0.0842,-0.0879,-0.0917,-0.0946,-0.0956,-0.0944,-0.0909,-0.0853,-0.0726,-0.0625,-0.044,-0.0239,0.0087,0.0242,0.0364,0.0358,0.0393,0.0389,0.0384,0.0358,0.033,0.0441,0.0441,0.0441,0.0441,0.0441,0,-0.0826,-0.0862,-0.0906,-0.0951,-0.098,-0.0985,-0.0963,-0.092,-0.0829,-0.0705,-0.056,-0.0314,-0.0078,0.0104,0.0319,0.0451,0.0427,0.0457,0.041,0.0404,0.0398,0.037,0.0458,0.0459,0.0459,0.0459,0,0,-0.0835,-0.0881,-0.0907,-0.0964,-0.0991,-0.0989,-0.0962,-0.0878,-0.078,-0.0618,-0.048,-0.0303,-0.007,0.0091,0.0258,0.0364,0.0339,0.0361,0.0336,0.0255,0.0247,0.0354,0.0303,0,0,0,0,0]}],[{"header":{"parameterUnit":"m.s-1","parameterCategory":2,"la1":30.2991,"la2":30.254,"lo1":-89.0895,"lo2":-89.0444,"dy":0.0017,"dx":0.0017,"nx":28,"ny":28,"refTime":"2023-08-27T09:00:00:Z","depth":"4","parameterNumber":2,"parameterNumberName":"U-component_of_CURRENTS"},"data":[0,0,0,0,0,0,0,0,0,0,0,0,0,0,0,0,0,0,0,0,0,0,0,0,0,0,0,0,0,0,0,0,0,0,0,0,0,0,0,0,0,0,0,0,0,0,0,0,0,0,0,0,0,0,0,0,0,0,-0.1469,-0.1469,0,-0.1473,-0.1473,-0.1473,-0.1495,-0.1496,-0.1496,-0.1497,-0.1534,-0.1535,-0.1535,0,0,0,0,0,0,0,0,0,0,0,0,0,-0.1462,-0.1463,-0.1469,-0.1469,-0.1469,-0.1473,-0.1473,-0.1473,-0.1495,-0.1496,-0.1496,-0.1497,-0.1534,-0.1535,-0.1536,0,0,0,0,0,0,0,0,0,0,0,0,0,-0.1466,-0.1463,-0.1469,-0.148,-0.1481,-0.1473,-0.1473,-0.1473,-0.1495,-0.1496,-0.1496,-0.1497,-0.1534,-0.1535,-0.1536,-0.1527,0,0,-0.1538,-0.1539,0,0,0,0,0,0,0,0,-0.1466,-0.1467,-0.1479,-0.1479,-0.148,-0.1484,-0.1485,-0.1493,-0.1495,-0.149,-0.1497,-0.1497,-0.152,-0.1522,-0.1521,-0.1529,-0.153,-0.1538,-0.1539,-0.1539,-0.1539,0,0,0,0,0,0,0,-0.1466,-0.1467,-0.1471,-0.1478,-0.148,-0.1479,-0.148,-0.1486,-0.1502,-0.1491,-0.1492,-0.1491,-0.1521,-0.152,-0.1522,-0.1531,-0.1538,-0.1539,-0.154,-0.154,-0.1549,-0.1549,0,0,0,0,0,0,-0.1464,-0.1466,-0.1471,-0.1471,-0.1474,-0.1478,-0.148,-0.1483,-0.1501,-0.1504,-0.1491,-0.1492,-0.1519,-0.1521,-0.1524,-0.1567,-0.1539,-0.154,-0.154,-0.1549,-0.1549,-0.1549,0,0,0,0,0,0,-0.1464,-0.1465,-0.1471,-0.1468,-0.1469,-0.1478,-0.148,-0.1482,-0.1508,-0.1501,-0.1505,-0.1518,-0.1519,-0.1523,-0.1545,-0.1567,-0.154,-0.1541,-0.155,-0.1549,-0.1549,-0.162,0,0,0,0,0,0,-0.1464,-0.1465,-0.1484,-0.1468,-0.1469,-0.1492,-0.148,-0.1482,-0.1505,-0.1508,-0.1525,-0.1528,-0.152,-0.1543,-0.1546,-0.1568,-0.1542,-0.155,-0.1549,-0.1549,-0.1618,-0.1622,-0.1626,0,0,0,0,0,-0.1464,-0.1474,-0.1485,-0.1486,-0.1489,-0.1493,-0.1495,-0.1502,-0.1506,-0.1527,-0.1528,-0.1529,-0.1541,-0.1545,-0.1547,-0.157,-0.155,-0.155,-0.1549,-0.1617,-0.1622,-0.1626,0,0,0,0,0,0,-0.1473,-0.1477,-0.1488,-0.1499,-0.1512,-0.1497,-0.1514,-0.1518,-0.1535,-0.1542,-0.1535,-0.1538,-0.1566,-0.1549,-0.1553,-0.1565,-0.1542,-0.1541,-0.1592,-0.1597,-0.16,-0.1583,-0.1543,0,0,0,0,0,-0.1486,-0.15,-0.1504,-0.1515,-0.1526,-0.1528,-0.1536,-0.1542,-0.1544,-0.1554,-0.1566,-0.1563,-0.1559,-0.1566,-0.1566,-0.1579,-0.1551,-0.1587,-0.1591,-0.1595,-0.1578,-0.1569,-0.1571,-0.1547,-0.1547,-0.1547,0,0,-0.1488,-0.1494,-0.1502,-0.152,-0.1528,-0.1536,-0.1536,-0.1554,-0.1561,-0.1554,-0.1584,-0.159,-0.1566,-0.1581,-0.159,-0.1575,-0.1586,-0.1594,-0.1598,-0.1579,-0.1569,-0.1572,-0.1574,-0.1546,-0.1546,-0.1546,0,0,-0.1482,-0.1513,-0.152,-0.1536,-0.1557,-0.1561,-0.1575,-0.1588,-0.1604,-0.1625,-0.1617,-0.1632,-0.1638,-0.1623,-0.1611,-0.1631,-0.1613,-0.1636,-0.1642,-0.1635,-0.1637,-0.1639,-0.1607,-0.1606,-0.1632,-0.1632,-0.1632,0,-0.1487,-0.1498,-0.1524,-0.1532,-0.1545,-0.1575,-0.1582,-0.1597,-0.1618,-0.1627,-0.1644,-0.1646,-0.1648,-0.1634,-0.1641,-0.1642,-0.1626,-0.1636,-0.1642,-0.1643,-0.1644,-0.1611,-0.1608,-0.1636,-0.1635,-0.1635,-0.1635,0,-0.1476,-0.1499,-0.1506,-0.1529,-0.155,-0.1567,-0.1588,-0.1621,-0.1649,-0.1655,-0.1681,-0.1684,-0.1677,-0.1687,-0.1672,-0.1673,-0.1656,-0.1659,-0.1638,-0.1651,-0.1615,-0.1611,-0.1641,-0.1639,-0.1638,-0.1637,0,0,-0.1442,-0.149,-0.1495,-0.1514,-0.1555,-0.1565,-0.1591,-0.1616,-0.163,-0.1669,-0.1679,-0.1686,-0.1702,-0.1685,-0.1684,-0.1679,-0.1682,-0.1674,-0.1672,-0.1654,-0.1651,-0.1537,-0.1522,-0.1699,-0.1699,-0.1699,-0.1625,0,-0.1428,-0.1447,-0.1475,-0.15,-0.1517,-0.156,-0.1578,-0.1607,-0.164,-0.1666,-0.1676,-0.169,-0.1694,-0.1706,-0.1703,-0.169,-0.1674,-0.17,-0.1629,-0.1625,-0.1534,-0.1514,-0.1698,-0.1622,-0.1621,-0.162,-0.162,0,-0.1403,-0.1425,-0.1448,-0.1497,-0.1509,-0.153,-0.1577,-0.1597,-0.1632,-0.1658,-0.1676,-0.1691,-0.1687,-0.1699,-0.1667,-0.1688,-0.1666,-0.1654,-0.1652,-0.1511,-0.1503,-0.1603,-0.1612,-0.1612,-0.1613,-0.1614,-0.1614,0,-0.1362,-0.1405,-0.143,-0.1446,-0.1501,-0.1524,-0.1556,-0.1597,-0.1615,-0.1655,-0.1671,-0.1678,-0.1681,-0.1666,-0.164,-0.1661,-0.1597,-0.1622,-0.1489,-0.1481,-0.1579,-0.1577,-0.1587,-0.1587,-0.1587,-0.1587,-0.1587,0,-0.1327,-0.135,-0.142,-0.1432,-0.1461,-0.1509,-0.154,-0.1572,-0.1613,-0.1617,-0.1664,-0.1654,-0.1678,-0.1648,-0.1629,-0.1525,-0.1582,-0.1466,-0.1448,-0.1609,-0.1612,-0.1576,-0.1575,-0.1584,-0.1585,-0.1586,-0.1586,0,-0.1272,-0.1321,-0.1352,-0.142,-0.1443,-0.1464,-0.1526,-0.1541,-0.159,-0.1596,-0.1608,-0.1632,-0.1582,-0.1574,-0.1536,-0.1486,-0.1421,-0.1372,-0.1518,-0.1514,-0.1314,-0.1318,-0.1212,-0.1207,-0.1203,-0.12,-0.1197,0,-0.1241,-0.1254,-0.1332,-0.1353,-0.1388,-0.1431,-0.1455,-0.1519,-0.1527,-0.1559,-0.1545,-0.1526,-0.1522,-0.1356,-0.1378,-0.1299,-0.129,-0.1251,-0.13,-0.1278,-0.1273,-0.1284,-0.1293,-0.119,-0.1189,-0.1188,-0.1187,0,-0.1179,-0.1222,-0.125,-0.1289,-0.1325,-0.1353,-0.1391,-0.1384,-0.1437,-0.1499,-0.1426,-0.138,-0.1311,-0.1265,-0.1201,-0.1161,-0.1278,-0.1209,-0.1218,-0.1263,-0.1252,-0.1252,-0.1266,-0.1173,-0.1175,-0.1176,-0.1177,0,-0.1135,-0.1139,-0.1182,-0.1202,-0.1249,-0.1247,-0.1282,-0.1273,-0.1283,-0.1323,-0.1292,-0.1268,-0.1291,-0.1189,-0.1138,-0.1075,-0.1068,-0.1049,-0.1067,-0.1082,-0.1074,-0.1042,-0.086,0,0,0,0,0,-0.1079,-0.107,-0.1087,-0.1097,-0.1142,-0.1159,-0.1223,-0.1258,-0.131,-0.122,-0.1249,-0.1177,-0.1084,-0.108,-0.0983,-0.1084,-0.1081,-0.097,-0.1072,-0.1095,-0.1111,-0.1114,0,0,0,0,0,0,-0.104,-0.1057,-0.1051,-0.1005,-0.0989,-0.1014,-0.1049,-0.1091,-0.1046,-0.1104,-0.1053,-0.1098,-0.1021,-0.1099,-0.0951,-0.0949,-0.0988,-0.0967,-0.0964,-0.1086,-0.1101,-0.1114,-0.1122,0,0,0,0,0]},{"header":{"parameterUnit":"m.s-1","parameterCategory":2,"la1":30.2991,"la2":30.254,"lo1":-89.0895,"lo2":-89.0444,"dy":0.0017,"dx":0.0017,"nx":28,"ny":28,"refTime":"2023-08-27T09:00:00:Z","depth":"4","parameterNumber":3,"parameterNumberName":"V-component_of_CURRENTS"},"data":[0,0,0,0,0,0,0,0,0,0,0,0,0,0,0,0,0,0,0,0,0,0,0,0,0,0,0,0,0,0,0,0,0,0,0,0,0,0,0,0,0,0,0,0,0,0,0,0,0,0,0,0,0,0,0,0,0,0,-0.0337,-0.0336,0,-0.0303,-0.0302,-0.0302,-0.0294,-0.0294,-0.0295,-0.0295,-0.024,-0.0239,-0.0237,0,0,0,0,0,0,0,0,0,0,0,0,0,-0.0357,-0.0357,-0.0337,-0.0336,-0.0336,-0.0303,-0.0302,-0.0302,-0.0294,-0.0294,-0.0295,-0.0295,-0.0241,-0.0239,-0.0237,0,0,0,0,0,0,0,0,0,0,0,0,0,-0.0339,-0.0357,-0.0337,-0.0327,-0.0326,-0.0303,-0.0302,-0.0302,-0.0294,-0.0294,-0.0295,-0.0295,-0.0242,-0.0239,-0.0237,-0.0217,0,0,-0.0229,-0.0228,0,0,0,0,0,0,0,0,-0.034,-0.0338,-0.0329,-0.0328,-0.0327,-0.0302,-0.0289,-0.0272,-0.0294,-0.0307,-0.0295,-0.0295,-0.0259,-0.0255,-0.0249,-0.0214,-0.0212,-0.0229,-0.0228,-0.0227,-0.0226,0,0,0,0,0,0,0,-0.0341,-0.0339,-0.0324,-0.0329,-0.0327,-0.0312,-0.031,-0.0286,-0.0282,-0.0306,-0.0305,-0.03,-0.0258,-0.0251,-0.0248,-0.0211,-0.0229,-0.0227,-0.0226,-0.0225,-0.0174,-0.0174,0,0,0,0,0,0,-0.0345,-0.0341,-0.0325,-0.0323,-0.0333,-0.0311,-0.0309,-0.031,-0.0283,-0.0279,-0.03,-0.03,-0.0255,-0.0251,-0.0246,-0.0222,-0.0227,-0.0225,-0.0223,-0.0174,-0.0174,-0.0174,0,0,0,0,0,0,-0.0346,-0.0345,-0.0326,-0.033,-0.0326,-0.0311,-0.0312,-0.031,-0.0308,-0.0278,-0.0274,-0.0302,-0.0255,-0.0249,-0.0239,-0.0219,-0.0223,-0.0221,-0.0174,-0.0174,-0.0174,-0.0173,0,0,0,0,0,0,-0.0347,-0.0345,-0.0355,-0.033,-0.0326,-0.0324,-0.0312,-0.0309,-0.0304,-0.0304,-0.0278,-0.0273,-0.0255,-0.0243,-0.0237,-0.0216,-0.0219,-0.0174,-0.0174,-0.0174,-0.0172,-0.0173,-0.0173,0,0,0,0,0,-0.0348,-0.036,-0.0356,-0.0355,-0.0339,-0.0324,-0.0321,-0.031,-0.0304,-0.0309,-0.0295,-0.0274,-0.0239,-0.0241,-0.0234,-0.0212,-0.0174,-0.0174,-0.0174,-0.0172,-0.0173,-0.0173,0,0,0,0,0,0,-0.0374,-0.0359,-0.0355,-0.0362,-0.0349,-0.0323,-0.0327,-0.0314,-0.0305,-0.0308,-0.0278,-0.0273,-0.0251,-0.0241,-0.0244,-0.0201,-0.0201,-0.02,-0.0203,-0.0202,-0.0203,-0.0215,-0.0217,0,0,0,0,0,-0.0384,-0.0392,-0.0369,-0.0378,-0.0372,-0.035,-0.0344,-0.0335,-0.0319,-0.0316,-0.0296,-0.0275,-0.0245,-0.0234,-0.0213,-0.0193,-0.0173,-0.0175,-0.0175,-0.0175,-0.0182,-0.0134,-0.013,-0.0175,-0.0175,-0.0175,0,0,-0.0395,-0.039,-0.0394,-0.0384,-0.0374,-0.0367,-0.0348,-0.0344,-0.0335,-0.031,-0.0301,-0.0274,-0.0241,-0.0217,-0.0206,-0.0207,-0.0153,-0.0176,-0.0176,-0.0183,-0.0134,-0.013,-0.0126,-0.0175,-0.0175,-0.0175,0,0,-0.0415,-0.0418,-0.0426,-0.0418,-0.0406,-0.0389,-0.0389,-0.0366,-0.0356,-0.0345,-0.0313,-0.0282,-0.0256,-0.0216,-0.0194,-0.0184,-0.0154,-0.0177,-0.0185,-0.0138,-0.0134,-0.0129,-0.0099,-0.0092,-0.0178,-0.0178,-0.0178,0,-0.0429,-0.0435,-0.0426,-0.0428,-0.0423,-0.04,-0.0399,-0.0383,-0.036,-0.0345,-0.035,-0.0283,-0.0251,-0.0195,-0.0193,-0.018,-0.0161,-0.0183,-0.0137,-0.0132,-0.0128,-0.0098,-0.009,-0.0178,-0.0178,-0.0178,-0.0178,0,-0.0447,-0.0454,-0.0458,-0.0453,-0.0447,-0.0446,-0.0419,-0.0411,-0.0397,-0.0371,-0.033,-0.029,-0.0249,-0.0224,-0.0206,-0.0152,-0.0151,-0.0139,-0.0133,-0.0123,-0.0092,-0.0084,-0.0178,-0.0178,-0.0178,-0.0178,0,0,-0.0464,-0.047,-0.0471,-0.0474,-0.0461,-0.0456,-0.0442,-0.0414,-0.0401,-0.0373,-0.0345,-0.0283,-0.0258,-0.0233,-0.0191,-0.015,-0.0095,-0.0139,-0.0137,-0.0105,-0.0005,-0.0014,-0.0006,-0.0075,-0.0074,-0.0073,0.0004,0,-0.0477,-0.0494,-0.0487,-0.0494,-0.0496,-0.0476,-0.0464,-0.0438,-0.0413,-0.0384,-0.0324,-0.0288,-0.026,-0.0238,-0.0189,-0.0119,-0.0076,-0.0118,-0.0025,-0.0022,-0.0027,0.0003,-0.0068,0.001,0.0012,0.0014,0.0015,0,-0.0487,-0.0499,-0.0516,-0.0514,-0.0512,-0.0515,-0.0493,-0.0479,-0.0429,-0.0409,-0.036,-0.0318,-0.0244,-0.023,-0.0108,-0.0141,-0.0078,-0.0027,-0.0022,-0.0028,-0.0016,-0.0002,0.0029,0.0028,0.0027,0.0026,0.0025,0,-0.0501,-0.0512,-0.053,-0.0532,-0.0529,-0.0532,-0.0526,-0.0491,-0.0476,-0.0425,-0.041,-0.0323,-0.028,-0.0193,-0.0092,-0.0098,0.0032,0.0043,0.0096,0.0096,0.0079,0.0074,0.013,0.013,0.0129,0.0129,0.0129,0,-0.0509,-0.0522,-0.0545,-0.0556,-0.0574,-0.0561,-0.0565,-0.0545,-0.0512,-0.0488,-0.0427,-0.0385,-0.027,-0.0183,-0.0095,0.002,0.0036,0.0098,0.012,0.0077,0.007,0.0085,0.0079,0.0132,0.0132,0.0131,0.013,0,-0.0515,-0.0532,-0.0556,-0.0575,-0.0584,-0.0599,-0.0604,-0.06,-0.0569,-0.0536,-0.0522,-0.0424,-0.0309,-0.0197,-0.0046,0.0016,0.0127,0.0166,0.01,0.0117,0.0158,0.0151,0.0233,0.0234,0.0234,0.0234,0.0235,0,-0.0517,-0.0535,-0.058,-0.0606,-0.062,-0.0642,-0.0654,-0.0634,-0.0623,-0.0551,-0.053,-0.0422,-0.0345,-0.0139,-0.0028,0.0133,0.0156,0.0202,0.019,0.0158,0.0172,0.0164,0.0157,0.0235,0.0235,0.0235,0.0236,0,-0.0522,-0.0548,-0.0574,-0.0631,-0.0662,-0.0686,-0.0698,-0.0687,-0.0646,-0.0624,-0.0514,-0.0403,-0.0273,-0.0125,-0.0006,0.0111,0.0164,0.0206,0.0206,0.0196,0.0162,0.0173,0.0165,0.0237,0.0237,0.0237,0.0236,0,-0.0528,-0.0555,-0.0601,-0.0644,-0.0692,-0.0711,-0.0712,-0.0679,-0.0657,-0.0569,-0.053,-0.0385,-0.03,-0.0135,-0.0021,0.0084,0.0113,0.014,0.0144,0.0144,0.0089,0.0031,0.0091,0,0,0,0,0,-0.0529,-0.0562,-0.0608,-0.0659,-0.0707,-0.0727,-0.0732,-0.072,-0.0677,-0.0599,-0.0559,-0.043,-0.024,-0.0158,-0.005,-0.0029,0.0112,0.0097,0.0141,0.0244,0.0243,0.0193,0,0,0,0,0,0,-0.0532,-0.058,-0.0605,-0.0662,-0.0695,-0.0736,-0.0735,-0.0704,-0.065,-0.0591,-0.0486,-0.0421,-0.0239,-0.0303,-0.0054,-0.0022,0.0017,0.0187,0.0189,0.0245,0.0244,0.0242,0.019,0,0,0,0,0]}]]